Simultaneous Nadir Overpasses (SNOs) Predictions

Prediction of SNOs between AQUA and METOP-A Satellite Orbit:

Table of predicted SNOs for the next 14.0 days since TLE Epoch: 1/3/2020
Index Date (AQUA) Time (AQUA) Lat,Lon (AQUA) SZA (AQUA ) Date (METOP-A) Time (METOP-A) Lat,Lon (METOP-A) SZA (METOP-A ) Distance(km) Time Diff (sec)
1 01/04/2020 22:43:57 75.76,-171.60 98.66 01/04/2020 22:42:50 75.74,-171.51 98.65 3.39 67
2 01/04/2020 23:33:23 -75.80, -4.07 81.30 01/04/2020 23:33:31 -75.78, -4.05 81.32 2.03 8
3 01/05/2020 00:22:55 76.01, 162.94 98.93 01/05/2020 00:24:06 76.01, 163.99 98.87 28.25 71
4 01/07/2020 18:18:12 75.77,-105.17 98.35 01/07/2020 18:17:13 75.74,-105.16 98.34 2.96 59
5 01/07/2020 19:07:38 -75.80, 62.38 81.62 01/07/2020 19:07:54 -75.78, 62.30 81.64 2.70 16
6 01/07/2020 19:57:16 76.30,-131.55 98.95 01/07/2020 19:58:22 76.33,-128.56 98.82 78.68 66
7 01/10/2020 13:52:26 75.78, -38.75 97.99 01/10/2020 13:51:34 75.78, -38.67 98.00 2.47 52
8 01/10/2020 14:41:52 -75.80, 128.81 81.99 01/10/2020 14:42:15 -75.83, 128.80 81.97 3.05 23
9 01/13/2020 09:26:41 75.79, 27.64 97.57 01/13/2020 09:25:57 75.78, 27.67 97.57 1.54 44
10 01/13/2020 10:16:07 -75.81,-164.77 82.42 01/13/2020 10:16:38 -75.83,-164.85 82.40 2.87 31
11 01/16/2020 05:00:56 75.81, 94.03 97.11 01/16/2020 05:00:19 75.82, 94.16 97.12 3.88 37
12 01/16/2020 05:50:22 -75.82, -98.37 82.89 01/16/2020 05:51:01 -75.82, -98.50 82.89 3.69 39




NCC Satellite Simultaneous Nadir Overpasses (SNOs) Prediction Service
